KM5HG-3 Weather Reports


Display with metric or nautical units.
time (UTC)temp
F
wind
direction
speed
MPH
gust
MPH
rain 1hr
in
rain 24hr
in
rain mn
in
humidity
%
barometer
mb
20180526134559 86 152 0.0 1.0 0.00 0.00 0.00
20180526133735 83 172 0.0 2.0 0.00 0.00 0.00
20180526133649 83 172 0.0 2.0 0.00 0.00 0.00
20180526133601 83 172 0.0 2.0 0.00 0.00 0.00
20180526133057 83 0 0.0 0.0 0.00 0.00 0.00
20180526132556 79 0 0.0 0.0 0.00 0.00 0.00
20180526132212 78 0 0.0 0.0 0.00 0.00 0.00
20180526132058 80 200 0.0 2.0 0.00 0.00 0.00
20180526131600 78 0 0.0 0.0 0.00 0.00 0.00
20180526131056 80 0 0.0 0.0 0.00 0.00 0.00
20180526130558 78 0 0.0 0.0 0.00 0.00 0.00
20180526130056 74 0 0.0 0.0 0.00 0.00 0.00
20180526125557 75 0 0.0 0.0 0.00 0.00 0.00
20180526125056 72 0 0.0 0.0 0.00 0.00 0.00
20180526124557 72 0 0.0 0.0 0.00 0.00 0.00
20180526124056 74 0 0.0 0.0 0.00 0.00 0.00
20180526122556 76 0 0.0 0.0 0.00 0.00 0.00
20180526122059 72 0 0.0 0.0 0.00 0.00 0.00
20180526122012 70 0 0.0 0.0 0.00 0.00 0.00
20180526121556 70 0 0.0 0.0 0.00 0.00 0.00
20180526121059 71 0 0.0 0.0 0.00 0.00 0.00
20180526120557 69 0 0.0 0.0 0.00 0.00 0.00
20180526120057 67 0 0.0 0.0 0.00 0.00 0.00
20180526115558 66 0 0.0 0.0 0.00 0.00 0.00
20180526115057 65 0 0.0 0.0 0.00 0.00 0.00
20180526114602 64 0 0.0 0.0 0.00 0.00 0.00
20180526114057 64 0 0.0 0.0 0.00 0.00 0.00
20180526113558 63 0 0.0 0.0 0.00 0.00 0.00
20180526113056 63 0 0.0 0.0 0.00 0.00 0.00
20180526112600 63 0 0.0 0.0 0.00 0.00 0.00
20180526112100 63 0 0.0 0.0 0.00 0.00 0.00
20180526111556 64 0 0.0 0.0 0.00 0.00 0.00
20180526111056 63 0 0.0 0.0 0.00 0.00 0.00
20180526110557 63 0 0.0 0.0 0.00 0.00 0.00
20180526110057 63 0 0.0 0.0 0.00 0.00 0.00
20180526105557 63 0 0.0 0.0 0.00 0.00 0.00
20180526105056 63 0 0.0 0.0 0.00 0.00 0.00
20180526104557 64 0 0.0 0.0 0.00 0.00 0.00
20180526104058 64 0 0.0 0.0 0.00 0.00 0.00
20180526103559 64 0 0.0 0.0 0.00 0.00 0.00
20180526103056 64 0 0.0 0.0 0.00 0.00 0.00
20180526102628 64 0 0.0 0.0 0.00 0.00 0.00
20180526102556 64 0 0.0 0.0 0.00 0.00 0.00
20180526102057 64 0 0.0 0.0 0.00 0.00 0.00
20180526101557 64 0 0.0 0.0 0.00 0.00 0.00
20180526101057 64 0 0.0 0.0 0.00 0.00 0.00
20180526100556 65 0 0.0 0.0 0.00 0.00 0.00
20180526100100 65 0 0.0 0.0 0.00 0.00 0.00
20180526095557 65 0 0.0 0.0 0.00 0.00 0.00
20180526095058 65 0 0.0 0.0 0.00 0.00 0.00
20180526094557 65 0 0.0 0.0 0.00 0.00 0.00
20180526094058 65 0 0.0 0.0 0.00 0.00 0.00
20180526093556 65 0 0.0 0.0 0.00 0.00 0.00
20180526093058 65 0 0.0 0.0 0.00 0.00 0.00
20180526092557 65 0 0.0 0.0 0.00 0.00 0.00
20180526092059 65 0 0.0 0.0 0.00 0.00 0.00
20180526091556 65 0 0.0 0.0 0.00 0.00 0.00
20180526091056 66 0 0.0 0.0 0.00 0.00 0.00
20180526090559 65 0 0.0 0.0 0.00 0.00 0.00
20180526090058 66 0 0.0 0.0 0.00 0.00 0.00
20180526085600 66 0 0.0 0.0 0.00 0.00 0.00
20180526085056 66 0 0.0 0.0 0.00 0.00 0.00
20180526084556 66 0 0.0 0.0 0.00 0.00 0.00
20180526084056 66 0 0.0 0.0 0.00 0.00 0.00
20180526083556 66 0 0.0 0.0 0.00 0.00 0.00
20180526083056 66 173 0.0 2.0 0.00 0.00 0.00
20180526082556 66 0 0.0 0.0 0.00 0.00 0.00
20180526082056 66 0 0.0 0.0 0.00 0.00 0.00
20180526081556 66 0 0.0 0.0 0.00 0.00 0.00
20180526081057 66 0 0.0 0.0 0.00 0.00 0.00
20180526080056 66 0 0.0 0.0 0.00 0.00 0.00
20180526075639 66 0 0.0 0.0 0.00 0.00 0.00
20180526075556 66 0 0.0 0.0 0.00 0.00 0.00
20180526075058 66 0 0.0 0.0 0.00 0.00 0.00
20180526074602 66 0 0.0 0.0 0.00 0.00 0.00
20180526074102 66 0 0.0 0.0 0.00 0.00 0.00
20180526073558 66 0 0.0 0.0 0.00 0.00 0.00
20180526073059 66 0 0.0 0.0 0.00 0.00 0.00
20180526072558 65 0 0.0 0.0 0.00 0.00 0.00
20180526072056 65 0 0.0 0.0 0.00 0.00 0.00
20180526071059 66 0 0.0 0.0 0.00 0.00 0.00
20180526070556 66 0 0.0 0.0 0.00 0.00 0.00
20180526070057 65 0 0.0 0.0 0.00 0.00 0.00
20180526065557 66 0 0.0 0.0 0.00 0.00 0.00
20180526065101 66 0 0.0 0.0 0.00 0.00 0.00
20180526064557 66 0 0.0 0.0 0.00 0.00 0.00
20180526064056 66 0 0.0 0.0 0.00 0.00 0.00
20180526063556 67 0 0.0 0.0 0.00 0.00 0.00
20180526063057 67 0 0.0 0.0 0.00 0.00 0.00
20180526062556 66 0 0.0 0.0 0.00 0.00 0.00
20180526062059 67 0 0.0 0.0 0.00 0.00 0.00
20180526060917 67 0 0.0 0.0 0.00 0.00 0.00
20180526060556 66 0 0.0 0.0 0.00 0.00 0.00
20180526060057 67 0 0.0 0.0 0.00 0.00 0.00
20180526055556 66 0 0.0 0.0 0.00 0.00 0.00
20180526055056 66 0 0.0 0.0 0.00 0.00 0.00
20180526054600 65 0 0.0 0.0 0.00 0.00 0.00
20180526054127 66 0 0.0 0.0 0.00 0.00 0.00
20180526054056 66 0 0.0 0.0 0.00 0.00 0.00
20180526053556 67 0 0.0 0.0 0.00 0.00 0.00
20180526053057 67 0 0.0 0.0 0.00 0.00 0.00
20180526052556 68 0 0.0 0.0 0.00 0.00 0.00
20180526052056 68 0 0.0 0.0 0.00 0.00 0.00
20180526051556 68 0 0.0 0.0 0.00 0.00 0.00
20180526051057 68 0 0.0 0.0 0.00 0.00 0.00
20180526050558 68 0 0.0 0.0 0.00 0.00 0.00
20180526050059 68 0 0.0 0.0 0.00 0.00 0.00
20180526045555 68 0 0.0 0.0 0.00 0.00 0.00
20180526045056 67 0 0.0 0.0 0.00 0.00 0.00
20180526044556 68 0 0.0 0.0 0.00 0.00 0.00
20180526044056 68 0 0.0 0.0 0.00 0.00 0.00
20180526043556 68 0 0.0 0.0 0.00 0.00 0.00
20180526043058 69 0 0.0 0.0 0.00 0.00 0.00
20180526042556 69 0 0.0 0.0 0.00 0.00 0.00
20180526042100 69 0 0.0 0.0 0.00 0.00 0.00
20180526041557 69 0 0.0 0.0 0.00 0.00 0.00
20180526041059 69 0 0.0 0.0 0.00 0.00 0.00
20180526040555 68 0 0.0 0.0 0.00 0.00 0.00
20180526035557 69 0 0.0 0.0 0.00 0.00 0.00
20180526035055 69 0 0.0 0.0 0.00 0.00 0.00
20180526034558 69 0 0.0 0.0 0.00 0.00 0.00
20180526034058 68 0 0.0 0.0 0.00 0.00 0.00
20180526033555 68 0 0.0 0.0 0.00 0.00 0.00
20180526033109 69 0 0.0 0.0 0.00 0.00 0.00
20180526032555 70 0 0.0 0.0 0.00 0.00 0.00
20180526032056 70 0 0.0 0.0 0.00 0.00 0.00
20180526031559 70 0 0.0 0.0 0.00 0.00 0.00
20180526031055 69 0 0.0 0.0 0.00 0.00 0.00
20180526030556 70 0 0.0 0.0 0.00 0.00 0.00
20180526030056 70 0 0.0 0.0 0.00 0.00 0.00
20180526025555 70 0 0.0 0.0 0.00 0.00 0.00
20180526025057 70 0 0.0 0.0 0.00 0.00 0.00
20180526024555 70 0 0.0 0.0 0.00 0.00 0.00
20180526024055 71 0 0.0 0.0 0.00 0.00 0.00
20180526023555 71 0 0.0 0.0 0.00 0.00 0.00
20180526023207 71 0 0.0 0.0 0.00 0.00 0.00
20180526023103 71 0 0.0 0.0 0.00 0.00 0.00
20180526022555 72 0 0.0 0.0 0.00 0.00 0.00
20180526022056 72 0 0.0 0.0 0.00 0.00 0.00
20180526021556 72 0 0.0 0.0 0.00 0.00 0.00
20180526021056 72 0 0.0 0.0 0.00 0.00 0.00
20180526020558 72 0 0.0 0.0 0.00 0.00 0.00
20180526020057 73 0 0.0 0.0 0.00 0.00 0.00
20180526015559 72 0 0.0 0.0 0.00 0.00 0.00
20180526015058 73 0 0.0 0.0 0.00 0.00 0.00
20180526014557 73 0 0.0 0.0 0.00 0.00 0.00
20180526014058 73 0 0.0 0.0 0.00 0.00 0.00
20180526013557 74 0 0.0 0.0 0.00 0.00 0.00
20180526013056 75 0 0.0 0.0 0.00 0.00 0.00
20180526012056 78 0 0.0 0.0 0.00 0.00 0.00
20180526011555 80 0 0.0 0.0 0.00 0.00 0.00
20180526011100 81 0 0.0 0.0 0.00 0.00 0.00
20180526010559 81 0 0.0 0.0 0.00 0.00 0.00
20180526010058 82 0 0.0 0.0 0.00 0.00 0.00
20180526005057 82 0 0.0 0.0 0.00 0.00 0.00
20180526004058 85 0 0.0 0.0 0.00 0.00 0.00
20180526003557 81 0 0.0 0.0 0.00 0.00 0.00
20180526002558 81 0 0.0 0.0 0.00 0.00 0.00
20180526002057 81 0 0.0 0.0 0.00 0.00 0.00
20180526001557 81 236 0.0 1.0 0.00 0.00 0.00
20180526001058 81 0 0.0 0.0 0.00 0.00 0.00
20180526000643 82 242 1.0 3.0 0.00 0.00 0.00
20180526000600 82 242 1.0 3.0 0.00 0.00 0.00
20180526000058 82 211 0.0 3.0 0.00 0.00 0.00
20180525235557 82 218 2.0 4.0 0.00 0.00 0.00
20180525235103 82 221 1.0 3.0 0.00 0.00 0.00
20180525234557 82 218 3.0 6.0 0.00 0.00 0.00
20180525233558 83 207 1.0 4.0 0.00 0.00 0.00
20180525233057 83 197 1.0 4.0 0.00 0.00 0.00
20180525232557 84 219 2.0 4.0 0.00 0.00 0.00
20180525232058 84 217 3.0 5.0 0.00 0.00 0.00
20180525231559 86 184 2.0 4.0 0.00 0.00 0.00
20180525231057 86 188 2.0 4.0 0.00 0.00 0.00
20180525230558 87 201 1.0 5.0 0.00 0.00 0.00
20180525230058 94 0 0.0 0.0 0.00 0.00 0.00
20180525225557 92 0 0.0 0.0 0.00 0.00 0.00
20180525225058 92 0 0.0 0.0 0.00 0.00 0.00
20180525224557 92 0 0.0 0.0 0.00 0.00 0.00
20180525224057 92 0 0.0 0.0 0.00 0.00 0.00
20180525223557 91 0 0.0 0.0 0.00 0.00 0.00
20180525223057 93 0 0.0 0.0 0.00 0.00 0.00
20180525222558 92 0 0.0 0.0 0.00 0.00 0.00
20180525222057 93 0 0.0 0.0 0.00 0.00 0.00
20180525221557 92 257 0.0 2.0 0.00 0.00 0.00
20180525221100 91 262 1.0 2.0 0.00 0.00 0.00
20180525220557 90 235 0.0 1.0 0.00 0.00 0.00
20180525220057 89 263 2.0 4.0 0.00 0.00 0.00
20180525215558 92 253 0.0 2.0 0.00 0.00 0.00
20180525214600 93 262 1.0 3.0 0.00 0.00 0.00
20180525214057 92 240 3.0 5.0 0.00 0.00 0.00
20180525213557 95 246 1.0 4.0 0.00 0.00 0.00
20180525213057 95 233 1.0 4.0 0.00 0.00 0.00
20180525212557 101 190 1.0 5.0 0.00 0.00 0.00
20180525212057 95 281 1.0 4.0 0.00 0.00 0.00
20180525211558 96 188 2.0 5.0 0.00 0.00 0.00
20180525211059 104 232 0.0 3.0 0.00 0.00 0.00
20180525210557 95 155 2.0 4.0 0.00 0.00 0.00
20180525210058 94 195 2.0 4.0 0.00 0.00 0.00
20180525205557 98 0 0.0 0.0 0.00 0.00 0.00
20180525205058 93 143 2.0 6.0 0.00 0.00 0.00
20180525204645 96 176 0.0 2.0 0.00 0.00 0.00
20180525204559 96 176 0.0 2.0 0.00 0.00 0.00
20180525204057 94 181 2.0 4.0 0.00 0.00 0.00
20180525203557 90 212 3.0 5.0 0.00 0.00 0.00
20180525202557 90 229 3.0 6.0 0.00 0.00 0.00
20180525202058 88 231 3.0 8.0 0.00 0.00 0.00
20180525201557 89 228 2.0 5.0 0.00 0.00 0.00
20180525201057 88 208 3.0 7.0 0.00 0.00 0.00
20180525200558 92 170 2.0 5.0 0.00 0.00 0.00
20180525200057 88 195 4.0 7.0 0.00 0.00 0.00
20180525195557 87 225 4.0 9.0 0.00 0.00 0.00
20180525195059 89 183 4.0 7.0 0.00 0.00 0.00
20180525194558 87 205 4.0 9.0 0.00 0.00 0.00
20180525194057 87 180 4.0 8.0 0.00 0.00 0.00
20180525193557 86 201 5.0 9.0 0.00 0.00 0.00
20180525193058 85 197 5.0 9.0 0.00 0.00 0.00
20180525192557 85 190 6.0 10.0 0.00 0.00 0.00
20180525192058 86 200 4.0 7.0 0.00 0.00 0.00
20180525191556 86 183 4.0 9.0 0.00 0.00 0.00
20180525191057 84 188 7.0 13.0 0.00 0.00 0.00
20180525190557 83 170 9.0 14.0 0.00 0.00 0.00
20180525190057 82 153 7.0 12.0 0.00 0.00 0.00
20180525185557 85 155 6.0 8.0 0.00 0.00 0.00
20180525185058 84 117 4.0 8.0 0.00 0.00 0.00
20180525184556 85 87 1.0 6.0 0.00 0.00 0.00
20180525184103 81 114 7.0 10.0 0.00 0.00 0.00
20180525183556 82 111 5.0 7.0 0.00 0.00 0.00
20180525183056 87 118 0.0 4.0 0.00 0.00 0.00
20180525182705 92 0 0.0 0.0 0.00 0.00 0.00
20180525182557 92 0 0.0 0.0 0.00 0.00 0.00
20180525182141 88 0 0.0 0.0 0.00 0.00 0.00
20180525182057 88 0 0.0 0.0 0.00 0.00 0.00
20180525181557 86 132 2.0 4.0 0.00 0.00 0.00
20180525181058 90 0 0.0 0.0 0.00 0.00 0.00
20180525180557 88 0 0.0 0.0 0.00 0.00 0.00
20180525180057 88 0 0.0 0.0 0.00 0.00 0.00
20180525175557 86 300 1.0 3.0 0.00 0.00 0.00
20180525175057 81 307 3.0 7.0 0.00 0.00 0.00
20180525174557 79 312 6.0 10.0 0.00 0.00 0.00
20180525174057 78 333 7.0 11.0 0.00 0.00 0.00
20180525173057 78 325 8.0 12.0 0.00 0.00 0.00
20180525172557 79 309 6.0 12.0 0.00 0.00 0.00
20180525172059 79 288 6.0 10.0 0.00 0.00 0.00
20180525171557 80 276 6.0 11.0 0.00 0.00 0.00
20180525171058 79 294 8.0 13.0 0.00 0.00 0.00
20180525170557 85 259 4.0 10.0 0.00 0.00 0.00
20180525170058 84 256 4.0 7.0 0.00 0.00 0.00
20180525165556 86 259 3.0 5.0 0.00 0.00 0.00
20180525165056 85 255 2.0 6.0 0.00 0.00 0.00
20180525164556 83 315 5.0 14.0 0.00 0.00 0.00
20180525164056 81 307 7.0 15.0 0.00 0.00 0.00
20180525163556 83 134 6.0 10.0 0.00 0.00 0.00
20180525163057 83 146 6.0 10.0 0.00 0.00 0.00
20180525162556 83 172 6.0 12.0 0.00 0.00 0.00
20180525162056 83 167 6.0 10.0 0.00 0.00 0.00
20180525161056 84 207 6.0 9.0 0.00 0.00 0.00
20180525160556 84 197 6.0 10.0 0.00 0.00 0.00
20180525160056 84 170 7.0 10.0 0.00 0.00 0.00
20180525155558 84 191 6.0 10.0 0.00 0.00 0.00
20180525155056 85 155 6.0 10.0 0.00 0.00 0.00
20180525154557 88 194 7.0 12.0 0.00 0.00 0.00
20180525154056 88 186 7.0 11.0 0.00 0.00 0.00
20180525153056 88 222 5.0 10.0 0.00 0.00 0.00
20180525152556 91 240 5.0 12.0 0.00 0.00 0.00
20180525151556 85 153 7.0 11.0 0.00 0.00 0.00
20180525151057 82 166 6.0 10.0 0.00 0.00 0.00
20180525150556 79 174 7.0 10.0 0.00 0.00 0.00
20180525150056 80 173 7.0 10.0 0.00 0.00 0.00
20180525145559 81 207 5.0 9.0 0.00 0.00 0.00
20180525145056 81 198 6.0 10.0 0.00 0.00 0.00
20180525144556 83 212 5.0 9.0 0.00 0.00 0.00
20180525144058 83 184 6.0 8.0 0.00 0.00 0.00
20180525143556 84 197 5.0 8.0 0.00 0.00 0.00
20180525143056 84 193 4.0 8.0 0.00 0.00 0.00
20180525142556 85 229 4.0 7.0 0.00 0.00 0.00
20180525142056 87 243 4.0 7.0 0.00 0.00 0.00
20180525141557 89 249 4.0 7.0 0.00 0.00 0.00
20180525141056 85 274 4.0 9.0 0.00 0.00 0.00
20180525140557 87 256 4.0 7.0 0.00 0.00 0.00
20180525135556 85 283 5.0 9.0 0.00 0.00 0.00
20180525135057 83 242 4.0 7.0 0.00 0.00 0.00